DW0156 Weather Reports


Display with metric or nautical units.
time (UTC)temp
F
wind
direction
speed
MPH
gust
MPH
rain 1hr
in
rain 24hr
in
rain mn
in
humidity
%
barometer
mb
20260903121749 57 263 0.0 0.0 0.00 0.00 0.00 74 1021.2
20260903121229 57 263 0.0 0.0 0.00 0.00 0.00 74 1021.2
20260903120737 57 263 0.0 0.0 0.00 0.00 0.00 74 1021.2
20260903120243 57 263 0.0 0.0 0.00 0.00 0.00 74 1021.2
20260903115727 57 263 0.0 1.0 0.00 0.00 0.00 73 1021.2
20260903115219 57 263 0.0 0.0 0.00 0.00 0.00 73 1021.2
20260903114722 57 263 0.0 0.0 0.00 0.00 0.00 73 1021.2
20260903112954 57 263 0.0 0.0 0.00 0.00 0.00 73 1021.2
20260903111851 57 263 0.0 0.0 0.00 0.00 0.00 72 1021.1
20260903111340 57 263 0.0 0.0 0.00 0.00 0.00 72 1021.0
20260903110849 57 263 0.0 0.0 0.00 0.00 0.00 72 1021.0
20260903110342 57 263 0.0 0.0 0.00 0.00 0.00 72 1021.0
20260903105845 57 263 0.0 0.0 0.00 0.00 0.00 72 1020.9
20260903104735 57 263 0.0 0.0 0.00 0.00 0.00 72 1020.9
20260903104244 57 263 0.0 2.0 0.00 0.00 0.00 71 1020.7
20260903103123 57 263 0.0 0.0 0.00 0.00 0.00 71 1020.7
20260903102610 57 263 0.0 0.0 0.00 0.00 0.00 71 1020.6
20260903102051 58 263 0.0 0.0 0.00 0.00 0.00 70 1020.6
20260903101557 58 263 0.0 0.0 0.00 0.00 0.00 70 1020.6
20260903101050 58 263 0.0 0.0 0.00 0.00 0.00 69 1020.4
20260903100540 58 263 0.0 0.0 0.00 0.00 0.00 69 1020.4
20260903100044 58 263 0.0 1.0 0.00 0.00 0.00 69 1020.4
20260903094914 58 263 0.0 4.0 0.00 0.00 0.00 68 1020.2
20260903094354 58 263 1.0 4.0 0.00 0.00 0.00 68 1020.3
20260903093838 58 263 1.0 5.0 0.00 0.00 0.00 68 1020.3
20260903093327 58 263 2.0 5.0 0.00 0.00 0.00 67 1020.3
20260903092822 58 263 2.0 6.0 0.00 0.00 0.00 67 1020.2
20260903092314 58 263 2.0 6.0 0.00 0.00 0.00 67 1020.2
20260903091202 58 263 2.0 6.0 0.00 0.00 0.00 66 1019.9
20260903090706 59 263 2.0 4.0 0.00 0.00 0.00 67 1019.9
20260903090147 59 263 1.0 4.0 0.00 0.00 0.00 67 1019.9
20260903085016 59 263 1.0 5.0 0.00 0.00 0.00 67 1020.0
20260903084500 59 263 2.0 5.0 0.00 0.00 0.00 67 1020.0
20260903083953 59 263 2.0 5.0 0.00 0.00 0.00 67 1019.7
20260903083451 59 263 1.0 5.0 0.00 0.00 0.00 66 1019.7
20260903082932 59 263 2.0 5.0 0.00 0.00 0.00 66 1019.7
20260903081808 59 263 2.0 5.0 0.00 0.00 0.00 65 1019.6
20260903081305 59 263 2.0 5.0 0.00 0.00 0.00 65 1019.5
20260903080753 59 263 2.0 5.0 0.00 0.00 0.00 65 1019.5
20260903080251 60 263 2.0 4.0 0.00 0.00 0.00 64 1019.5
20260903075756 60 263 2.0 5.0 0.00 0.00 0.00 64 1019.4
20260903075306 60 263 2.0 5.0 0.00 0.00 0.00 63 1019.4
20260903074803 60 263 3.0 9.0 0.00 0.00 0.00 63 1019.4
20260903074251 60 263 3.0 9.0 0.00 0.00 0.00 63 1019.2
20260903073754 60 263 3.0 9.0 0.00 0.00 0.00 62 1019.2
20260903073236 60 263 3.0 9.0 0.00 0.00 0.00 62 1019.2
20260903072726 60 263 2.0 6.0 0.00 0.00 0.00 62 1019.1
20260903071624 60 263 3.0 9.0 0.00 0.00 0.00 62 1019.1
20260903071116 60 263 3.0 9.0 0.00 0.00 0.00 62 1019.2
20260903070623 60 263 4.0 9.0 0.00 0.00 0.00 61 1019.2
20260903070113 60 263 4.0 12.0 0.00 0.00 0.00 61 1019.2
20260903065622 60 263 3.0 12.0 0.00 0.00 0.00 62 1019.1
20260903064521 60 263 5.0 12.0 0.00 0.00 0.00 62 1019.1
20260903063411 60 263 4.0 12.0 0.00 0.00 0.00 62 1019.1
20260903062226 61 263 4.0 12.0 0.00 0.00 0.00 63 1019.1
20260903061058 61 263 4.0 11.0 0.00 0.00 0.00 65 1019.1
20260903060601 61 263 4.0 11.0 0.00 0.00 0.00 64 1019.1
20260903060056 61 263 3.0 7.0 0.00 0.00 0.00 64 1019.1
20260903055554 61 263 3.0 7.0 0.00 0.00 0.00 64 1019.1
20260903055100 61 263 3.0 10.0 0.00 0.00 0.00 64 1019.1
20260903054541 61 263 3.0 10.0 0.00 0.00 0.00 64 1019.1
20260903054030 61 263 3.0 10.0 0.00 0.00 0.00 64 1019.0
20260903053533 61 263 4.0 10.0 0.00 0.00 0.00 64 1019.0
20260903052403 61 263 4.0 10.0 0.00 0.00 0.00 68 1019.0
20260903051901 61 263 3.0 9.0 0.00 0.00 0.00 68 1019.0
20260903051350 61 263 3.0 11.0 0.00 0.00 0.00 69 1018.7
20260903050854 61 263 4.0 11.0 0.00 0.00 0.00 69 1018.7
20260903045712 61 263 4.0 13.0 0.00 0.00 0.00 69 1018.6
20260903045152 61 263 6.0 13.0 0.00 0.00 0.00 68 1018.6
20260903044657 61 263 5.0 12.0 0.00 0.00 0.00 67 1018.6
20260903044203 62 263 5.0 11.0 0.00 0.00 0.00 69 1018.5
20260903043709 61 263 5.0 11.0 0.00 0.00 0.00 68 1018.5
20260903043158 61 263 4.0 12.0 0.00 0.00 0.00 68 1018.5
20260903042041 61 263 5.0 12.0 0.00 0.00 0.00 71 1018.5
20260903041546 61 263 4.0 12.0 0.00 0.00 0.00 71 1018.5
20260903041034 61 263 4.0 9.0 0.00 0.00 0.00 73 1018.5
20260903040543 62 263 4.0 9.0 0.00 0.00 0.00 73 1018.5
20260903040036 61 263 4.0 10.0 0.00 0.00 0.00 74 1018.5
20260903035521 61 263 4.0 10.0 0.00 0.00 0.00 73 1018.5
20260903035008 61 263 5.0 12.0 0.00 0.00 0.00 73 1018.5
20260903034452 61 263 6.0 12.0 0.00 0.00 0.00 73 1018.5
20260903033948 61 263 6.0 13.0 0.00 0.00 0.00 72 1018.5
20260903033448 62 263 4.0 13.0 0.00 0.00 0.00 72 1018.5
20260903032944 62 263 5.0 13.0 0.00 0.00 0.00 72 1018.5
20260903032429 62 263 4.0 13.0 0.00 0.00 0.00 73 1018.5
20260903031912 62 263 3.0 9.0 0.00 0.00 0.00 73 1018.5
20260903025529 61 263 4.0 10.0 0.00 0.00 0.00 78 1018.5
20260903025036 61 263 3.0 9.0 0.00 0.00 0.00 78 1018.5
20260903023910 60 263 4.0 9.0 0.00 0.00 0.00 80 1018.6
20260903023349 60 263 4.0 9.0 0.00 0.00 0.00 81 1018.6
20260903022841 60 263 4.0 9.0 0.00 0.00 0.00 81 1018.6
20260903022351 60 263 4.0 9.0 0.00 0.00 0.00 81 1018.6
20260903021847 60 263 4.0 9.0 0.00 0.00 0.00 83 1018.6
20260903021354 60 263 4.0 9.0 0.00 0.00 0.00 83 1018.6
20260903020246 60 263 4.0 9.0 0.00 0.00 0.00 86 1018.6
20260903015727 59 263 3.0 9.0 0.00 0.00 0.00 87 1018.5
20260903014620 59 263 4.0 10.0 0.00 0.00 0.00 88 1018.5
20260903013449 58 263 4.0 12.0 0.00 0.00 0.00 89 1018.5
20260903012952 58 263 5.0 12.0 0.00 0.00 0.00 89 1018.5
20260903011829 58 263 5.0 12.0 0.00 0.00 0.00 88 1018.4
20260903011331 58 263 4.0 13.0 0.00 0.00 0.00 89 1018.4
20260903010827 58 263 6.0 13.0 0.00 0.00 0.00 88 1018.4
20260903010324 58 263 6.0 13.0 0.00 0.00 0.00 87 1018.4
20260903005811 58 263 6.0 13.0 0.00 0.00 0.00 87 1018.2
20260903004638 59 263 6.0 15.0 0.00 0.00 0.00 85 1018.2
20260903004145 59 263 6.0 15.0 0.00 0.00 0.00 84 1018.1
20260903003643 59 263 6.0 15.0 0.00 0.00 0.00 84 1018.1
20260903003132 59 263 6.0 14.0 0.00 0.00 0.00 84 1018.1
20260903002003 59 263 5.0 14.0 0.00 0.00 0.00 84 1018.1
20260903001441 59 263 5.0 14.0 0.00 0.00 0.00 84 1018.1
20260903000947 59 263 5.0 13.0 0.00 0.00 0.00 85 1018.0
20260903000436 59 263 5.0 11.0 0.00 0.00 0.00 85 1018.0
20260902235940 59 263 5.0 17.0 0.00 0.00 0.00 85 1018.0
20260902235439 59 263 6.0 17.0 0.00 0.00 0.00 85 1018.0
20260902234932 58 263 6.0 17.0 0.00 0.00 0.00 85 1018.0
20260902233815 59 263 3.0 13.0 0.00 0.00 0.00 85 1017.9
20260902233325 58 263 3.0 13.0 0.00 0.00 0.00 86 1017.9
20260902232817 58 263 3.0 13.0 0.00 0.00 0.00 86 1018.0
20260902232259 58 263 4.0 13.0 0.00 0.00 0.00 86 1018.0
20260902231745 58 263 5.0 12.0 0.00 0.00 0.00 86 1018.0
20260902231235 58 263 5.0 12.0 0.00 0.00 0.00 86 1017.6
20260902230731 58 263 5.0 12.0 0.00 0.00 0.00 86 1017.6
20260902230216 58 263 4.0 12.0 0.00 0.00 0.00 86 1017.6
20260902225715 58 263 3.0 12.0 0.00 0.00 0.00 87 1017.5
20260902225219 58 263 3.0 12.0 0.00 0.00 0.00 87 1017.5
20260902224702 58 263 3.0 11.0 0.00 0.00 0.00 87 1017.5
20260902224147 57 263 2.0 10.0 0.00 0.00 0.00 87 1017.1
20260902223632 57 263 3.0 9.0 0.00 0.00 0.00 88 1017.1
20260902222449 57 263 1.0 6.0 0.00 0.00 0.00 88 1017.0
20260902221935 57 263 2.0 8.0 0.00 0.00 0.00 88 1017.0
20260902221431 56 263 1.0 8.0 0.00 0.00 0.00 88 1017.0
20260902220936 56 263 1.0 10.0 0.00 0.00 0.00 87 1016.8
20260902220438 56 263 2.0 10.0 0.00 0.00 0.00 87 1016.8
20260902215943 56 263 2.0 10.0 0.00 0.00 0.00 87 1016.8
20260902215451 56 263 2.0 10.0 0.00 0.00 0.00 87 1016.6
20260902214952 56 263 2.0 9.0 0.00 0.00 0.00 87 1016.6
20260902214440 56 263 2.0 9.0 0.00 0.00 0.00 87 1016.6
20260902213927 56 263 2.0 7.0 0.00 0.00 0.00 87 1016.5
20260902213436 56 263 2.0 9.0 0.00 0.00 0.00 87 1016.5
20260902212945 56 263 2.0 9.0 0.00 0.00 0.00 87 1016.5
20260902212444 56 263 3.0 9.0 0.00 0.00 0.00 87 1016.4
20260902211939 56 263 2.0 9.0 0.00 0.00 0.00 87 1016.4
20260902211448 56 263 2.0 5.0 0.00 0.00 0.00 86 1016.4
20260902210937 56 263 1.0 8.0 0.00 0.00 0.00 86 1016.1
20260902210439 56 263 1.0 8.0 0.00 0.00 0.00 86 1016.1
20260902205938 56 263 2.0 9.0 0.00 0.00 0.00 86 1016.1
20260902205430 56 263 2.0 9.0 0.00 0.00 0.00 86 1016.0
20260902204915 56 263 2.0 9.0 0.00 0.00 0.00 86 1016.0
20260902204411 56 263 1.0 9.0 0.00 0.00 0.00 85 1016.0
20260902203916 56 263 1.0 6.0 0.00 0.00 0.00 85 1015.9
20260902202747 56 263 1.0 9.0 0.00 0.00 0.00 85 1015.8
20260902202238 56 263 2.0 10.0 0.00 0.00 0.00 85 1015.8
20260902201748 56 263 2.0 10.0 0.00 0.00 0.00 85 1015.8
20260902195950 56 263 3.0 11.0 0.00 0.00 0.00 84 1015.6
20260902195432 56 263 3.0 11.0 0.00 0.00 0.00 84 1015.4
20260902194920 56 263 3.0 11.0 0.00 0.00 0.00 84 1015.4
20260902194402 56 263 3.0 11.0 0.00 0.00 0.00 84 1015.4
20260902193300 56 263 3.0 10.0 0.00 0.00 0.00 84 1015.4
20260902192142 56 263 3.0 10.0 0.00 0.00 0.00 83 1015.3
20260902191629 56 263 3.0 13.0 0.00 0.00 0.00 83 1015.3
20260902190506 56 263 3.0 13.0 0.00 0.00 0.00 83 1015.0
20260902185956 56 263 4.0 13.0 0.00 0.00 0.00 83 1015.0
20260902185446 56 263 3.0 13.0 0.00 0.00 0.00 82 1014.9
20260902184949 56 263 2.0 13.0 0.00 0.00 0.00 82 1014.9
20260902184445 56 263 2.0 13.0 0.00 0.00 0.00 82 1014.9
20260902183937 56 263 3.0 13.0 0.00 0.00 0.00 82 1014.9
20260902183430 56 263 3.0 9.0 0.00 0.00 0.00 81 1014.9
20260902182918 56 263 2.0 8.0 0.00 0.00 0.00 81 1014.9
20260902182426 56 263 2.0 13.0 0.00 0.00 0.00 81 1014.9
20260902181926 56 263 3.0 13.0 0.00 0.00 0.00 81 1014.9
20260902181421 56 263 4.0 13.0 0.00 0.00 0.00 81 1014.9
20260902180232 56 263 2.0 13.0 0.00 0.00 0.00 80 1014.9
20260902175717 56 263 3.0 12.0 0.00 0.00 0.00 80 1014.9
20260902175219 56 263 4.0 12.0 0.00 0.00 0.00 80 1014.9
20260902174716 56 263 3.0 11.0 0.00 0.00 0.00 79 1014.9
20260902173552 56 263 2.0 9.0 0.00 0.00 0.00 79 1015.0
20260902173057 56 263 3.0 9.0 0.00 0.00 0.00 78 1015.0
20260902172540 56 263 3.0 12.0 0.00 0.00 0.00 78 1015.1
20260902172039 56 263 2.0 12.0 0.00 0.00 0.00 78 1015.1
20260902171532 56 263 3.0 12.0 0.00 0.00 0.00 77 1015.1
20260902171014 56 263 3.0 12.0 0.00 0.00 0.00 77 1015.2
20260902170502 56 263 2.0 9.0 0.00 0.00 0.00 77 1015.2
20260902170006 56 263 2.0 9.0 0.00 0.00 0.00 76 1015.2
20260902165509 56 263 2.0 9.0 0.00 0.00 0.00 76 1015.3
20260902164329 56 263 1.0 6.0 0.00 0.00 0.00 76 1015.4
20260902163821 56 263 1.0 6.0 0.00 0.00 0.00 76 1015.4
20260902162632 55 263 2.0 9.0 0.00 0.00 0.00 76 1015.5
20260902162117 55 263 2.0 11.0 0.00 0.00 0.00 77 1015.5
20260902161607 55 263 2.0 11.0 0.00 0.00 0.00 76 1015.5
20260902155831 55 263 5.0 16.0 0.00 0.00 0.00 77 1015.8
20260902154708 55 263 2.0 9.0 0.00 0.00 0.00 78 1015.8
20260902152941 55 263 2.0 12.0 0.00 0.00 0.00 77 1015.6
20260902152448 55 263 3.0 12.0 0.00 0.00 0.00 77 1015.6
20260902151310 55 263 3.0 16.0 0.00 0.00 0.00 77 1015.9
20260902150809 55 263 4.0 16.0 0.00 0.00 0.00 76 1015.9
20260902150253 56 263 7.0 16.0 0.00 0.00 0.00 75 1015.9
20260902145737 56 263 6.0 16.0 0.00 0.00 0.00 74 1015.7
20260902145234 56 263 4.0 11.0 0.00 0.00 0.00 74 1015.7
20260902144741 56 263 3.0 9.0 0.00 0.00 0.00 74 1015.7
20260902144228 56 263 2.0 9.0 0.00 0.00 0.00 75 1015.8
20260902143737 56 263 1.0 9.0 0.00 0.00 0.00 75 1015.8
20260902143243 56 263 1.0 6.0 0.00 0.00 0.00 75 1015.8
20260902142745 56 263 2.0 10.0 0.00 0.00 0.00 75 1015.9
20260902142231 56 263 3.0 10.0 0.00 0.00 0.00 75 1015.9
20260902140545 56 263 3.0 8.0 0.00 0.00 0.00 75 1016.0
20260902140042 56 263 3.0 15.0 0.00 0.00 0.00 75 1016.0
20260902135551 56 263 3.0 15.0 0.00 0.00 0.00 75 1016.2
20260902135046 56 263 4.0 15.0 0.00 0.00 0.00 75 1016.2
20260902134535 56 263 5.0 15.0 0.00 0.00 0.00 75 1016.2
20260902133412 56 263 4.0 10.0 0.00 0.00 0.00 75 1016.2
20260902132920 56 263 3.0 10.0 0.00 0.00 0.00 75 1016.2
20260902132404 56 263 3.0 10.0 0.00 0.00 0.00 74 1016.1
20260902131852 56 263 4.0 10.0 0.00 0.00 0.00 74 1016.1
20260902131359 56 263 4.0 10.0 0.00 0.00 0.00 74 1016.2
20260902130900 56 263 3.0 10.0 0.00 0.00 0.00 73 1016.2
20260902130408 56 263 3.0 12.0 0.00 0.00 0.00 73 1016.2
20260902125905 56 263 3.0 12.0 0.00 0.00 0.00 73 1016.3
20260902124149 56 263 3.0 11.0 0.00 0.00 0.00 72 1016.4
20260902123649 55 263 3.0 11.0 0.00 0.00 0.00 72 1016.4
20260902123151 55 263 5.0 11.0 0.00 0.00 0.00 73 1016.4
20260902122650 55 263 4.0 10.0 0.00 0.00 0.00 74 1016.5
20260902122134 55 263 4.0 9.0 0.00 0.00 0.00 76 1016.5